Syracuse, NY (13201)

6:55 PM EST on February 06, 2016 (GMT -0500)
MoST* - Armory Square | | Change Station
CLOSE
Current Station
Personal Weather Station
Location: Syracuse, NY
Elevation: 400 ft
Nearby Weather Stations

Elev 400 ft 43.05 °N, 76.16 °W | Updated 8 seconds ago

Clear
Clear
33.8 °F
Feels Like 34 °F
N
0.0
Wind Variable Wind from NW
Gusts 0.0 mph

Today
High -- | Low -- °F
--% Chance of Precip.
Yesterday
High -- | Low -- °F
Precip. -- in
Pressure 30.18 in
Visibility 10.0 miles
Clouds Few 5500 ft
Few 14000 ft
Windchill 34 °F
Dew Point 21 °F
Humidity 60%
Rainfall 0.00 in
Snow Depth Not available.
7:14 AM 5:23 PM
Waning Crescent, 3% visible
METAR KSYR 062254Z 00000KT 10SM FEW055 FEW140 M01/M06 A3017 RMK AO2 SLP219 T10061061 $
Pressure 30.18 in
Visibility 10.0 miles
Clouds Few 5500 ft
Few 14000 ft
Windchill 34 °F
Dew Point 21 °F
Humidity 60%
Rainfall 0.00 in
Snow Depth Not available.
7:14 AM 5:23 PM
Waning Crescent, 3% visible
METAR KSYR 062254Z 00000KT 10SM FEW055 FEW140 M01/M06 A3017 RMK AO2 SLP219 T10061061 $

10-Day Weather Forecast

Almanac

Astronomy

Feb. 06, 2016 Rise Set
Actual Time
Civil Twilight
Nautical Twilight
Astronomical Twilight
Moon
Length of Visible Light
Length of Day
Tomorrow will be .
, % of the Moon is Illuminated

Today's Extremes

State Highs State Lows

Community

WunderPhotos

Upload Photos

1,891,098 photos uploaded!

WunderBlog® & News

Nearby

Air Quality

  Air Quality AQ Index Pollutant
Not available.

Snow Depth

Station Depth Elevation

Earthquake Activity

City Distance Mag. Time & Date
Minimum magnitude displayed is 2.5.

Coastal Water Temperatures

Place Temperature

Stations

Nearby Weather Stations

Station Location Temp. Windchill Dew Point Humidity Wind Precip. Elev Updated Type
                   

Watches & Warnings

There are currently no watches in effect.